Location: Recife
(8.0585°S, 34.8848°W)
Time: 11:16:51
(UTC-03:00)

SR - Pass Details

Date: 16 April 2026
Orbit: 568 x 852 km, 66.7° (Epoch: 12 May)

Event Time Altitude Azimuth Distance (km) Brightness Sun altitude
Rises 00:21:55 0° 338° (NNW) 3,399 - -74.4°
Reaches altitude 10° 00:24:24 10° 337° (NNW) 2,462 - -73.8°
Maximum altitude 00:30:08 81° 251° (WSW) 843 - -72.4°
Drops below altitude 10° 00:35:40 10° 163° (SSE) 2,376 - -71.1°
Sets 00:38:02 0° 161° (SSE) 3,272 - -70.5°
